User: anonymous   Login
Location: Unspecified
(0.0000°N, 0.0000°E)
Time: 00:50:42
(UTC+02:00)
Language:

Cosmos 2237 Rocket - Orbit

View from above orbital plane
View from above orbital plane
View from above satellite
View from above satellite

Ground track
Ground track

The orbit data is extracted from the following two-line orbital elements,

1 22566U 93016B   18114.54680057 -.00000475 +00000-0 -22081-3 0  9994
2 22566 071.0043 133.3549 0009765 006.2564 353.8679 14.14955024295301
Epoch (UTC): 24 April 2018 13:07:23
Eccentricity: 0.0009765
inclination: 71.0043°
perigee height: 835 km
apogee height: 849 km
right ascension of ascending node: 133.3549°
argument of perigee: 6.2564°
revolutions per day: 14.14955024
mean anomaly at epoch: 353.8679°
orbit number at epoch: 29530

The dashed part of the orbit path shows where the satellite is in the earth's shadow,  

DLR